Huron, SD

10:48 AM CDT on April 23, 2017 (GMT -0500)
Huron Regional

Weather History for KHON - January, 2014

Change the Weather History Date:

Monday, January 20, 2014

  Actual Average Record
Temperature  
Mean Temperature 15 °F 17 °F  
Max Temperature 36 °F 27 °F 63 °F (1943)
Min Temperature -6 °F 7 °F -30 °F (1883)
Degree Days  
Heating Degree Days 50 48  
Month to date heating degree days 981 975  
Since 1 July heating degree days 4304 4095  
Cooling Degree Days 0 0  
Month to date cooling degree days 0 0  
Year to date cooling degree days 0 0  
Moisture  
Dew Point 10 °F    
Average Humidity 79    
Maximum Humidity 92    
Minimum Humidity 66    
Precipitation  
Precipitation T in 0.01 in 0.48 in (1917)
Month to date precipitation 0.11 0.32  
Year to date precipitation 0.11 0.32  
Snow  
Snow T in 0.20 in 4.70 in (1917)
Month to date snowfall 0.5 4.7  
Since 1 July snowfall 15.9 21.0  
Snow Depth 1.00 in    
Sea Level Pressure  
Sea Level Pressure 30.21 in    
Wind  
Wind Speed 17 mph (NNW)    
Max Wind Speed 38 mph    
Max Gust Speed 46 mph    
Visibility 6 miles    
Events Fog , Snow    
T = Trace of Precipitation, MM = Missing Value Source: NWS Daily Summary

Daily Weather History Graph

Daily Weather History Graph

Search for Another Location

Airport or City:

Trip Planner

Search our weather history database for the weather conditions in past years. The results will help you decide how hot, cold, wet, or windy it might be!

Date:

Astronomy

Jan. 20, 2014 Rise Set
Actual Time 8:02 AM CST 5:26 PM CST
Civil Twilight 7:30 AM CST 5:57 PM CST
Nautical Twilight 6:54 AM CST 6:33 PM CST
Astronomical Twilight 6:20 AM CST 7:08 PM CST
Moon 10:14 PM CST (1/20) 9:51 AM CST (1/20)
Length of Visible Light 10h 27m
Length of Day
9h 23m
Waning Gibbous, 82% of the Moon is Illuminated
Jan 20
Waning Gibbous
Jan 23
Last Quarter
Jan 30
New
Feb 6
First Quarter
Feb 14
Full

Hourly Weather History & Observations

Time (CST) Temp. Windchill Dew Point Humidity Pressure Visibility Wind Dir Wind Speed Gust Speed Precip Events Conditions
12:55 AM 34.0 °F 26.0 °F 28.0 °F 79% 29.87 in 10.0 mi NW 10.4 mph - N/A   Clear
1:55 AM 32.0 °F 24.8 °F 27.0 °F 82% 29.88 in 10.0 mi NW 8.1 mph - N/A   Partly Cloudy
2:55 AM 28.9 °F 21.9 °F 26.1 °F 89% 29.90 in 10.0 mi West 6.9 mph - N/A   Clear
3:55 AM 30.9 °F 22.8 °F 26.1 °F 82% 29.91 in 10.0 mi West 9.2 mph - N/A   Clear
4:55 AM 32.0 °F 24.8 °F 27.0 °F 82% 29.92 in 10.0 mi West 8.1 mph - N/A   Clear
5:55 AM 32.0 °F 21.6 °F 26.1 °F 79% 29.93 in 10.0 mi West 15.0 mph - N/A   Clear
6:55 AM 32.0 °F 21.6 °F 26.1 °F 79% 29.94 in 10.0 mi WNW 15.0 mph - N/A   Clear
7:55 AM 30.9 °F 20.7 °F 25.0 °F 79% 29.95 in 10.0 mi WNW 13.8 mph - N/A   Clear
8:55 AM 34.0 °F 23.8 °F 26.1 °F 73% 29.97 in 10.0 mi WNW 16.1 mph - N/A   Overcast
9:55 AM 35.1 °F 24.5 °F 27.0 °F 72% 29.98 in 10.0 mi WNW 18.4 mph 24.2 mph N/A   Overcast
10:52 AM 33.8 °F 21.9 °F 30.2 °F 87% 29.96 in 4.0 mi NW 21.9 mph 34.5 mph 0.00 in Snow Light Snow
10:55 AM 34.0 °F 22.1 °F 30.0 °F 85% 30.01 in 2.5 mi NW 21.9 mph 29.9 mph 0.00 in Snow Light Snow
11:03 AM 28.4 °F 14.7 °F 26.6 °F 93% 29.98 in 1.5 mi North 21.9 mph - 0.00 in Snow Light Snow
11:23 AM 21.2 °F 4.5 °F 19.4 °F 93% 30.02 in 0.2 mi North 24.2 mph 32.2 mph 0.00 in Fog , Snow Snow
11:26 AM 21.2 °F 5.2 °F 19.4 °F 93% 30.02 in 0.5 mi NNW 21.9 mph 31.1 mph 0.00 in Fog , Snow Snow
11:37 AM 19.4 °F 1.8 °F 17.6 °F 93% 30.03 in 2.0 mi North 25.3 mph 34.5 mph 0.00 in Snow Light Snow
11:43 AM 19.4 °F 0.8 °F 15.8 °F 86% 30.04 in 3.0 mi North 28.8 mph 36.8 mph 0.00 in Snow Light Snow
11:55 AM 19.9 °F 1.8 °F 16.0 °F 85% 30.11 in 3.0 mi North 27.6 mph 35.7 mph 0.00 in Snow Light Snow
12:07 PM 19.4 °F 2.1 °F 14.0 °F 80% 30.07 in 4.0 mi North 24.2 mph 33.4 mph 0.00 in   Overcast
12:14 PM 17.6 °F -0.6 °F 14.0 °F 86% 30.09 in 4.0 mi North 25.3 mph 33.4 mph 0.00 in Snow Blowing Snow
12:29 PM 17.6 °F 0.5 °F 12.2 °F 79% 30.11 in 1.8 mi North 21.9 mph 34.5 mph 0.00 in Snow Light Snow
12:35 PM 15.8 °F -4.4 °F 10.4 °F 79% 30.12 in 0.8 mi North 29.9 mph 38.0 mph 0.00 in Snow Light Snow
12:55 PM 12.0 °F -9.8 °F 7.0 °F 80% 30.22 in 0.5 mi North 31.1 mph 39.1 mph 0.00 in Snow Snow
1:06 PM 12.2 °F -10.2 °F 6.8 °F 79% 30.17 in 1.2 mi North 33.4 mph 41.4 mph 0.00 in Snow Light Snow
1:18 PM 10.4 °F -11.0 °F 5.0 °F 79% 30.19 in 3.0 mi North 27.6 mph 41.4 mph 0.00 in Snow Light Snow
1:25 PM 10.4 °F -11.0 °F 3.2 °F 73% 30.20 in 2.5 mi North 27.6 mph 38.0 mph 0.00 in Snow Light Snow
1:47 PM 10.4 °F -11.0 °F 3.2 °F 73% 30.23 in 1.5 mi North 27.6 mph 46.0 mph 0.00 in Snow Light Snow
1:55 PM 10.0 °F -13.1 °F 1.9 °F 70% 30.31 in 1.8 mi North 33.4 mph 41.4 mph 0.00 in Snow Light Snow
2:19 PM 8.6 °F -14.5 °F 1.4 °F 73% 30.28 in 2.5 mi North 31.1 mph 40.3 mph 0.00 in Snow Light Snow
2:26 PM 8.6 °F -14.5 °F 1.4 °F 73% 30.29 in 4.0 mi North 31.1 mph 40.3 mph 0.00 in Snow Light Snow
2:45 PM 8.6 °F -14.8 °F 1.4 °F 73% 30.30 in 1.8 mi North 32.2 mph 41.4 mph 0.00 in Snow Light Snow
2:55 PM 7.0 °F -17.0 °F -0.9 °F 70% 30.39 in 4.0 mi North 32.2 mph 40.3 mph 0.00 in Snow Light Snow
3:55 PM 6.1 °F -16.1 °F -0.9 °F 73% 30.45 in 4.0 mi North 25.3 mph 32.2 mph 0.00 in Snow Blowing Snow
4:42 PM 3.2 °F -19.0 °F -5.8 °F 66% 30.42 in 10.0 mi North 23.0 mph 33.4 mph 0.00 in   Overcast
4:55 PM 3.9 °F -19.0 °F -5.1 °F 66% 30.50 in 10.0 mi North 25.3 mph 32.2 mph 0.00 in   Mostly Cloudy
5:20 PM 1.4 °F -21.9 °F -5.8 °F 72% 30.45 in 7.0 mi North 24.2 mph 31.1 mph 0.00 in   Scattered Clouds
5:55 PM 1.9 °F -20.2 °F -7.1 °F 66% 30.56 in 10.0 mi North 21.9 mph 29.9 mph 0.00 in   Partly Cloudy
6:55 PM -0.0 °F -20.1 °F -7.1 °F 72% 30.60 in 10.0 mi North 16.1 mph 25.3 mph N/A   Clear
7:55 PM -2.0 °F -22.6 °F -9.0 °F 72% 30.63 in 10.0 mi North 16.1 mph - N/A   Clear
8:55 PM -2.9 °F -19.8 °F -9.0 °F 75% 30.63 in 10.0 mi North 10.4 mph - N/A   Clear
9:55 PM -4.0 °F -24.5 °F -11.9 °F 69% 30.64 in 10.0 mi North 15.0 mph - N/A   Clear
10:55 PM -5.1 °F -20.4 °F -13.0 °F 69% 30.66 in 10.0 mi North 8.1 mph - N/A   Clear
11:55 PM -6.0 °F -21.5 °F -14.1 °F 68% 30.66 in 10.0 mi North 8.1 mph - N/A   Clear